Regional Weather Roundup
Issued by NWS Sioux Falls, SD

Home | Current Version | Previous Version | Text Only | Print | Product List | Glossary On
Versions: 1 2 3 4 5 6 7 8 9 10 11 12 13 14 15 16 17 18 19 20 21 22 23 24 25 26 27 28 29 30 31 32 33 34 35 36 37 38 39 40 41 42 43 44 45 46 47 48 49 50
000
ASUS43 KFSD 230902
RWRFSD

WEATHER ROUNDUP FOR SE SOUTH DAKOTA/SW MINNESOTA/NW IOWA
NATIONAL WEATHER SERVICE SIOUX FALLS SD
400 AM CDT SAT SEP 23 2017

NOTE: "FAIR" INDICATES FEW OR NO CLOUDS BELOW 12,000 FEET WITH NO
SIGNIFICANT WEATHER AND OR OBSTRUCTIONS TO VISIBILITY.


SDZ038>040-050-052>070-231000-
SOUTHEAST SOUTH DAKOTA

CITY           SKY/WX    TMP DP  RH WIND       PRES   REMARKS
BROOKINGS      CLOUDY    60  59  96 NW8       29.89R
CHAMBERLAIN    CLOUDY    53  53  99 NW14G20   29.96F
HURON          CLOUDY    54  52  93 NW14      29.96R
MADISON        FAIR      57  57 100 NW9       29.89R
MITCHELL       CLOUDY    55  51  86 NW17G23   29.95R
SIOUX FALLS    PTCLDY    64  62  93 NW6       29.87R
WINNER         TSTM      51  49  92 N5        29.96R FOG
YANKTON        MOCLDY    59  57  93 NW10      29.90R
$$

MNZ071-072-080-081-089-090-097-098-231000-
SOUTHWEST MINNESOTA

CITY           SKY/WX    TMP DP  RH WIND       PRES   REMARKS
FAIRMONT       CLEAR     73  68  84 S10       29.90S
JACKSON        CLEAR     72  66  83 S10       29.90F
MARSHALL       PTCLDY    64  61  90 NW5       29.87R
MONTEVIDEO     MOCLDY    64  63  94 N5        29.86R
PIPESTONE      PTCLDY    64  63  94 CALM      29.87S
REDWOOD FALLS  CLOUDY    75  67  76 W3        29.85R
TRACY          CLEAR     72  68  87 N7        29.87R
WORTHINGTON    CLEAR     73  67  81 S13G21    29.89S
$$

IAZ001>003-012>014-020>022-031-032-NEZ013-014-SDZ071-231000-
NORTHWEST IOWA

CITY           SKY/WX    TMP DP  RH WIND       PRES   REMARKS
CHEROKEE       CLEAR     72  69  90 S7        29.90S
DENISON        CLEAR     72  68  88 SW6       29.94R
ESTHERVILLE    CLEAR     69  68  96 S9        29.90S
LE MARS        PTCLDY    73  68  83 S10       29.88S
ORANGE CITY    PTCLDY    72  70  94 S6        29.89S
SHELDON        CLEAR     72  68  88 S9G16     29.87S
SIOUX CITY     MOCLDY    71  69  93 SE7       29.88R
SPENCER        CLEAR     69  67  93 S6        29.91S
STORM LAKE     CLEAR     70  66  88 S10       29.92S
$$

ABBREVIATIONS USED IN REMARKS
   TC - TEMPERATURE IN CELSIUS
  WCI - WIND CHILL INDEX
   HX - HEAT INDEX
  VSB - VISIBILITY




USA.gov is the U.S. government's official web portal to all federal, state and local government web resources and services.